Regional Weather Roundup
Issued by NWS

Home | Current Version | Previous Version | Text Only | Print | Product List | Glossary On
Versions: 1 2 3 4 5 6 7 8 9 10 11 12 13 14 15 16 17 18 19 20 21 22 23 24 25 26 27 28 29 30 31 32 33 34 35 36 37 38 39 40 41 42 43 44 45 46 47 48 49 50
000
ASUS43 KIND 250609
RWRIN

WEATHER ROUNDUP FOR INDIANA
NATIONAL WEATHER SERVICE INDIANAPOLIS IN
200 AM EDT WED MAY 25 2016

NOTE: "FAIR" INDICATES FEW OR NO CLOUDS BELOW 12,000 FEET WITH NO
SIGNIFICANT WEATHER AND/OR OBSTRUCTIONS TO VISIBILITY.

* - STATION DOES NOT REPORT WEATHER SUCH AS PRECIPITATION OR FOG.

+ - STATION NOT QUALITY CONTROLLED BY THE NATIONAL WEATHER SERVICE.
    USE DATA WITH CAUTION...ESPECIALLY DEWPOINT AND RELATIVE
    HUMIDITY OBSERVATIONS.

INZ001>003-010>013-019-020-250700-
NORTHWEST INDIANA

CITY           SKY/WX    TMP DP  RH WIND       PRES   REMARKS
GARY /AIRPORT/ CLOUDY    74  63  67 S5        29.99F
KNOX *+        CLOUDY    68  43  40 S8        30.01S
LA PORTE +     CLOUDY    71  55  56 S5        30.02S
6HR MIN TEMP:  71; 6HR MAX TEMP:  85;

MICHIGAN CITY+ PTCLDY    70  54  56 S8        30.00F
MONTICELLO +   PTCLDY    67  53  59 S3        30.02S
6HR MIN TEMP:  67; 6HR MAX TEMP:  81;

RENSSELAER +   CLOUDY    70  54  56 S5        30.02S
VALPARAISO     CLOUDY    69  55  60 S5        30.01S
6HR MIN TEMP:  69; 6HR MAX TEMP:  83;


$$

LMZ046-743>745-250700-
SOUTHERN LAKE MICHIGAN

STATION/POSITION TIME  TEMP    WIND        PRES    WAVE
                       AIR SEA DIR/SP/G            HT
                 (UTC) (F)     (DEG/KT/KT) (MB)    (FT)
BURNS HARBOR     0500   73     190/ 12/ 14 1015.9S
MICHIGAN CITY    0500   74     170/ 13/ 15   N/A
5NW MICH CITY    0600   66 57  200/  8/ 10   N/A     1

$$

INZ004-005-014>016-021>024-250700-
NORTH CENTRAL INDIANA

CITY           SKY/WX    TMP DP  RH WIND       PRES   REMARKS
GOSHEN         CLEAR     66  50  56 S7        30.03R
6HR MIN TEMP:  66; 6HR MAX TEMP:  80;

LOGANSPORT +   PTCLDY    63  54  72 S5        30.05S
PERU/GRISSOM   CLEAR     64  54  68 S2        30.04R
ROCHESTER +    CLOUDY    72  55  56 S6        30.04S
SOUTH BEND     CLOUDY    67  53  61 S7        30.02R
6HR MIN TEMP:  67; 6HR MAX TEMP:  81;

WARSAW +       CLEAR     64  52  63 CALM      30.04S

$$

INZ006>009-017-018-025>027-250700-
NORTHEAST INDIANA

CITY           SKY/WX    TMP DP  RH WIND       PRES   REMARKS
ANGOLA *+      CLEAR     57  52  82 CALM      30.04S
AUBURN +       CLEAR     63  50  63 SW3       30.05S
FORT WAYNE     MOCLDY    62  50  64 S7        30.05S
6HR MIN TEMP:  62; 6HR MAX TEMP:  78;

HUNTINGTON +   CLEAR     62  53  74 CALM      30.05S

$$

INZ028-029-035-036-043>045-051>053-250700-
WEST CENTRAL INDIANA

CITY           SKY/WX    TMP DP  RH WIND       PRES   REMARKS
CRAWFORDSVL +  PTCLDY    63  56  80 SE6       30.03F
6HR MIN TEMP:  61; 6HR MAX TEMP:  77;

GREENCASTLE +  MOCLDY    64  59  82 CALM      30.05S
LAFAYETTE      PTCLDY    64  56  75 CALM      30.02S
6HR MIN TEMP:  62; 6HR MAX TEMP:  80;

TERRE HAUTE    CLOUDY    66  56  70 S5        30.03F
6HR MIN TEMP:  66; 6HR MAX TEMP:  78;


$$

INZ030>032-037>040-046>048-054>057-064-065-250700-
CENTRAL INDIANA

CITY           SKY/WX    TMP DP  RH WIND       PRES   REMARKS
CP ATTERBURY + PTCLDY    59  55  88 CALM      30.07S
FRANKFORT +      N/A     66  46  47 CALM      30.06S
6HR MIN TEMP:  64; 6HR MAX TEMP:  81;

GREENWOOD *+   PTCLDY    66  55  68 SE3       30.06F
INDIANAPOLIS   CLOUDY    67  55  65 SE3       30.03F
6HR MIN TEMP:  66; 6HR MAX TEMP:  77;

-EAGLE CREEK   CLEAR     66  56  70 CALM      30.04F
6HR MIN TEMP:  65; 6HR MAX TEMP:  79;

KOKOMO *+      CLEAR     61  52  72 S5        30.05S
6HR MIN TEMP:  61; 6HR MAX TEMP:  81;

MARION +       CLEAR     62  53  71 SE5       30.06S
SHELBYVILLE    PTCLDY    63  56  78 SE5       30.05F
6HR MIN TEMP:  63; 6HR MAX TEMP:  80;

ZIONSVILLE +   CLEAR     60  55  83 CALM      30.06F
6HR MIN TEMP:  60; 6HR MAX TEMP:  78;


$$

INZ033-034-041-042-049-050-058-059-250700-
EAST CENTRAL INDIANA

CITY           SKY/WX    TMP DP  RH WIND       PRES   REMARKS
MUNCIE         CLEAR     67  52  58 S3        30.07R
6HR MIN TEMP:  67; 6HR MAX TEMP:  81;


$$

INZ060-061-067>069-081>083-085>088-250700-
SOUTHWEST INDIANA

CITY           SKY/WX    TMP DP  RH WIND       PRES   REMARKS
EVANSVILLE     CLEAR     67  59  75 CALM      30.04F
6HR MIN TEMP:  66; 6HR MAX TEMP:  78;

HUNTINGBURG *+ CLEAR     70  55  60 S5        30.05F
6HR MIN TEMP:  70; 6HR MAX TEMP:  75;

WASHINGTON +   CLOUDY    69  60  73 S7        30.03F
6HR MIN TEMP:  69; 6HR MAX TEMP:  79;


$$

INZ062-063-066-070>080-084-089>092-250700-
SOUTH CENTRAL AND SOUTHEAST INDIANA

CITY           SKY/WX    TMP DP  RH WIND       PRES   REMARKS
BLOOMINGTON    CLOUDY    68  56  65 S6        30.05F
6HR MIN TEMP:  65; 6HR MAX TEMP:  78;

MADISON *+     CLEAR     61  55  82 CALM      30.10S
NORTH VERNON + CLEAR     61  61 100 CALM      30.08S
SEYMOUR +      CLOUDY    64  59  82 SE5       30.06F

$$




USA.gov is the U.S. government's official web portal to all federal, state and local government web resources and services.